status,avgMeasuredTime,avgSpeed,extID,medianMeasuredTime,TIMESTAMP,vehicleCount,_id,REPORT_ID
OK,35,65,927,35,2014-08-01T08:00:00,17,20746982,179390
OK,35,65,927,35,2014-08-01T08:05:00,16,20747431,179390
OK,36,64,927,36,2014-08-01T08:10:00,17,20747804,179390
OK,40,57,927,40,2014-08-01T08:15:00,13,20748253,179390
OK,38,60,927,38,2014-08-01T08:20:00,21,20748702,179390
OK,37,62,927,37,2014-08-01T08:25:00,22,20749151,179390
OK,36,64,927,36,2014-08-01T08:30:00,16,20749600,179390
OK,38,60,927,38,2014-08-01T08:35:00,27,20750049,179390
OK,38,60,927,38,2014-08-01T08:40:00,32,20750498,179390
OK,39,59,927,39,2014-08-01T08:45:00,24,20750947,179390
OK,36,64,927,36,2014-08-01T08:50:00,21,20751396,179390
OK,35,65,927,35,2014-08-01T08:55:00,22,20751845,179390
OK,44,52,927,44,2014-08-01T09:00:00,16,20752294,179390
OK,43,53,927,43,2014-08-01T09:05:00,22,20752743,179390
OK,41,56,927,41,2014-08-01T09:10:00,24,20753192,179390
OK,35,65,927,35,2014-08-01T09:20:00,14,20754090,179390
OK,37,62,927,37,2014-08-01T09:25:00,13,20754539,179390
OK,49,47,927,49,2014-08-01T09:30:00,16,20754988,179390
OK,40,57,927,40,2014-08-01T09:35:00,24,20755437,179390
OK,36,64,927,36,2014-08-01T09:40:00,27,20755886,179390
OK,35,65,927,35,2014-08-01T09:45:00,23,20756335,179390
OK,36,64,927,36,2014-08-01T09:50:00,20,20756784,179390
OK,38,60,927,38,2014-08-01T09:55:00,19,20757233,179390
OK,38,60,927,38,2014-08-01T10:00:00,17,20757682,179390
OK,35,65,927,35,2014-08-01T10:05:00,19,20758131,179390
OK,34,67,927,34,2014-08-01T10:15:00,25,20759029,179390
OK,34,67,927,34,2014-08-01T10:20:00,18,20759478,179390
OK,35,65,927,35,2014-08-01T10:25:00,30,20759927,179390
OK,37,62,927,37,2014-08-01T10:30:00,29,20760376,179390
OK,40,57,927,40,2014-08-01T10:35:00,17,20760825,179390
OK,38,60,927,38,2014-08-01T10:40:00,25,20761274,179390
OK,38,60,927,38,2014-08-01T10:45:00,34,20761723,179390
OK,36,64,927,36,2014-08-01T10:50:00,25,20762172,179390
OK,37,62,927,37,2014-08-01T10:55:00,18,20762621,179390
OK,35,65,927,35,2014-08-01T11:00:00,16,20763070,179390
OK,35,65,927,35,2014-08-01T11:05:00,20,20763519,179390
OK,36,64,927,36,2014-08-01T11:10:00,25,20763968,179390
OK,38,60,927,38,2014-08-01T11:15:00,25,20764416,179390
OK,33,69,927,33,2014-08-01T11:20:00,25,20764865,179390
OK,34,67,927,34,2014-08-01T11:25:00,21,20765314,179390
OK,38,60,927,38,2014-08-01T11:30:00,16,20765763,179390
OK,38,60,927,38,2014-08-01T11:35:00,14,20766212,179390
OK,33,69,927,33,2014-08-01T11:40:00,13,20766661,179390
OK,33,69,927,33,2014-08-01T11:45:00,13,20767110,179390
OK,36,64,927,36,2014-08-01T11:50:00,21,20767559,179390
OK,35,65,927,35,2014-08-01T11:55:00,22,20768008,179390
OK,34,67,927,34,2014-08-01T12:00:00,13,20768457,179390
OK,68,33,927,68,2014-08-01T12:05:00,11,20768906,179390
OK,35,65,927,35,2014-08-01T12:10:00,8,20769355,179390
OK,35,65,927,35,2014-08-01T12:15:00,11,20769804,179390
OK,36,64,927,36,2014-08-01T12:20:00,17,20770253,179390
OK,53,43,927,53,2014-08-01T12:25:00,15,20770702,179390
OK,40,57,927,40,2014-08-01T12:30:00,9,20771151,179390
OK,39,59,927,39,2014-08-01T12:35:00,19,20771600,179390
OK,67,34,927,67,2014-08-01T12:40:00,27,20772049,179390
OK,41,56,927,41,2014-08-01T12:45:00,20,20772498,179390
OK,57,40,927,57,2014-08-01T12:50:00,12,20772947,179390
OK,44,52,927,44,2014-08-01T12:55:00,17,20773396,179390
OK,34,67,927,34,2014-08-01T13:00:00,19,20773845,179390
OK,34,67,927,34,2014-08-01T13:05:00,20,20774294,179390
OK,36,64,927,36,2014-08-01T13:10:00,26,20774743,179390
OK,37,62,927,37,2014-08-01T13:15:00,27,20775192,179390
OK,74,31,927,74,2014-08-01T13:20:00,23,20775641,179390
OK,72,32,927,72,2014-08-01T13:25:00,10,20776090,179390
OK,53,43,927,53,2014-08-01T13:30:00,15,20776539,179390
OK,46,50,927,46,2014-08-01T13:35:00,23,20776988,179390
OK,46,50,927,46,2014-08-01T13:40:00,19,20777437,179390
OK,39,59,927,39,2014-08-01T13:45:00,13,20777886,179390
OK,37,62,927,37,2014-08-01T13:50:00,17,20778335,179390
OK,37,62,927,37,2014-08-01T14:00:00,16,20779233,179390
OK,40,57,927,40,2014-08-01T14:05:00,15,20779682,179390
OK,41,56,927,41,2014-08-01T14:10:00,24,20780131,179390
OK,42,54,927,42,2014-08-01T14:15:00,29,20780580,179390
OK,42,54,927,42,2014-08-01T14:20:00,21,20781029,179390
OK,35,65,927,35,2014-08-01T14:25:00,15,20781478,179390
OK,36,64,927,36,2014-08-01T14:30:00,18,20781927,179390
OK,37,62,927,37,2014-08-01T14:35:00,19,20782376,179390
OK,35,65,927,35,2014-08-01T14:40:00,19,20782825,179390
OK,34,67,927,34,2014-08-01T14:45:00,20,20783274,179390
OK,35,65,927,35,2014-08-01T14:50:00,13,20783723,179390
OK,39,59,927,39,2014-08-01T14:55:00,12,20784172,179390
OK,36,64,927,36,2014-08-01T15:00:00,15,20784621,179390
OK,33,69,927,33,2014-08-01T15:05:00,15,20785070,179390
OK,33,69,927,33,2014-08-01T15:10:00,13,20785519,179390
OK,34,67,927,34,2014-08-01T15:15:00,9,20785968,179390
OK,35,65,927,35,2014-08-01T15:20:00,11,20786417,179390
OK,39,59,927,39,2014-08-01T15:25:00,11,20786866,179390
OK,34,67,927,34,2014-08-01T15:30:00,7,20787315,179390
OK,33,69,927,33,2014-08-01T15:35:00,8,20787764,179390
OK,33,69,927,33,2014-08-01T15:40:00,6,20788213,179390
OK,39,59,927,39,2014-08-01T15:45:00,11,20788662,179390
OK,36,64,927,36,2014-08-01T15:50:00,13,20789111,179390
OK,37,62,927,37,2014-08-01T15:55:00,18,20789560,179390
OK,43,53,927,43,2014-08-01T16:00:00,15,20790009,179390
OK,35,65,927,35,2014-08-01T16:05:00,8,20790458,179390
OK,36,64,927,36,2014-08-01T16:10:00,11,20790907,179390
OK,36,64,927,36,2014-08-01T16:15:00,14,20791356,179390
OK,36,64,927,36,2014-08-01T16:20:00,15,20791805,179390
OK,32,72,927,32,2014-08-01T16:25:00,9,20792254,179390
OK,30,76,927,30,2014-08-01T16:30:00,5,20792703,179390
OK,35,65,927,35,2014-08-01T16:35:00,9,20793152,179390
OK,35,65,927,35,2014-08-01T16:40:00,5,20793601,179390
OK,36,64,927,36,2014-08-01T16:45:00,8,20794050,179390
OK,35,65,927,35,2014-08-01T16:50:00,12,20794499,179390
OK,34,67,927,34,2014-08-01T16:55:00,10,20794948,179390
OK,34,67,927,34,2014-08-01T17:00:00,5,20795397,179390
OK,25,92,927,25,2014-08-01T17:05:00,2,20795846,179390
OK,30,76,927,30,2014-08-01T17:10:00,3,20796295,179390
OK,35,65,927,35,2014-08-01T17:15:00,8,20796744,179390
OK,36,64,927,36,2014-08-01T17:20:00,8,20797193,179390
OK,38,60,927,38,2014-08-01T17:25:00,5,20797642,179390
OK,35,65,927,35,2014-08-01T17:30:00,5,20798091,179390
OK,35,65,927,35,2014-08-01T17:35:00,7,20798540,179390
OK,32,72,927,32,2014-08-01T17:40:00,9,20798989,179390
OK,32,72,927,32,2014-08-01T17:45:00,7,20799438,179390
OK,41,56,927,41,2014-08-01T17:50:00,4,20799887,179390
OK,28,82,927,28,2014-08-01T17:55:00,3,20800336,179390
OK,28,82,927,28,2014-08-01T18:00:00,4,20800785,179390
OK,28,82,927,28,2014-08-01T18:05:00,1,20801234,179390
OK,28,82,927,28,2014-08-01T18:10:00,2,20801683,179390
OK,27,85,927,27,2014-08-01T18:15:00,4,20802132,179390
OK,31,74,927,31,2014-08-01T18:20:00,5,20802581,179390
OK,34,67,927,34,2014-08-01T18:25:00,7,20803030,179390
OK,36,64,927,36,2014-08-01T18:30:00,7,20803479,179390
OK,34,67,927,34,2014-08-01T18:35:00,4,20803928,179390
OK,29,79,927,29,2014-08-01T18:40:00,2,20804377,179390
OK,28,82,927,28,2014-08-01T18:45:00,4,20804826,179390
OK,32,72,927,32,2014-08-01T18:50:00,7,20805275,179390
OK,33,69,927,33,2014-08-01T18:55:00,4,20805724,179390
OK,34,67,927,34,2014-08-01T19:00:00,3,20806173,179390
OK,36,64,927,36,2014-08-01T19:05:00,5,20806622,179390
OK,35,65,927,35,2014-08-01T19:10:00,5,20807071,179390
OK,26,88,927,26,2014-08-01T19:15:00,3,20807520,179390
OK,36,64,927,36,2014-08-01T19:20:00,8,20807969,179390
OK,36,64,927,36,2014-08-01T19:25:00,7,20808418,179390
OK,35,65,927,35,2014-08-01T19:30:00,8,20808867,179390
OK,34,67,927,34,2014-08-01T19:35:00,11,20809316,179390
OK,33,69,927,33,2014-08-01T19:40:00,6,20809765,179390
OK,38,60,927,38,2014-08-01T19:45:00,7,20810214,179390
OK,41,56,927,41,2014-08-01T19:50:00,5,20810663,179390
OK,37,62,927,37,2014-08-01T19:55:00,8,20811112,179390
OK,35,65,927,35,2014-08-01T22:00:00,0,20816841,179390
OK,39,59,927,39,2014-08-02T00:00:00,3,20823280,179390
OK,36,64,927,36,2014-08-02T00:05:00,0,20823729,179390
OK,36,64,927,36,2014-08-02T00:10:00,0,20824178,179390
OK,36,64,927,36,2014-08-02T00:15:00,0,20824627,179390
OK,36,64,927,36,2014-08-02T00:20:00,0,20825076,179390
OK,36,64,927,36,2014-08-02T00:25:00,0,20825525,179390
OK,34,67,927,34,2014-08-02T00:30:00,2,20825974,179390
OK,34,67,927,34,2014-08-02T00:35:00,0,20826423,179390
OK,34,67,927,34,2014-08-02T00:40:00,0,20826872,179390
OK,34,67,927,34,2014-08-02T00:45:00,0,20827321,179390
OK,34,67,927,34,2014-08-02T00:50:00,0,20827770,179390
OK,34,67,927,34,2014-08-02T00:55:00,0,20828219,179390
OK,26,88,927,26,2014-08-02T01:00:00,1,20828668,179390
OK,26,88,927,26,2014-08-02T01:05:00,1,20829117,179390
OK,26,88,927,26,2014-08-02T01:10:00,0,20829566,179390
OK,29,79,927,29,2014-08-02T01:15:00,1,20830015,179390
OK,29,79,927,29,2014-08-02T01:20:00,0,20830464,179390
OK,29,79,927,29,2014-08-02T01:25:00,0,20830913,179390
OK,29,79,927,29,2014-08-02T01:30:00,0,20831362,179390
OK,41,56,927,41,2014-08-02T01:35:00,1,20831811,179390
OK,41,56,927,41,2014-08-02T01:40:00,0,20832260,179390
OK,54,42,927,54,2014-08-02T01:45:00,2,20832709,179390
OK,66,34,927,66,2014-08-02T01:50:00,1,20833158,179390
OK,47,49,927,47,2014-08-02T01:55:00,2,20833607,179390
OK,47,49,927,47,2014-08-02T02:00:00,2,20834056,179390
OK,37,62,927,37,2014-08-02T02:05:00,0,20834505,179390
OK,37,62,927,37,2014-08-02T02:10:00,0,20834954,179390
OK,39,59,927,39,2014-08-02T02:15:00,2,20835403,179390
OK,40,57,927,40,2014-08-02T02:20:00,3,20835852,179390
OK,40,57,927,40,2014-08-02T02:25:00,0,20836301,179390
OK,40,57,927,40,2014-08-02T02:30:00,0,20836750,179390
OK,37,62,927,37,2014-08-02T02:35:00,1,20837199,179390
OK,42,54,927,42,2014-08-02T02:40:00,2,20837648,179390
OK,48,48,927,48,2014-08-02T02:45:00,2,20838097,179390
OK,48,48,927,48,2014-08-02T02:50:00,0,20838546,179390
OK,48,48,927,48,2014-08-02T02:55:00,0,20838995,179390
OK,36,64,927,36,2014-08-02T03:00:00,1,20839444,179390
OK,36,64,927,36,2014-08-02T03:05:00,1,20839893,179390
OK,36,64,927,36,2014-08-02T03:10:00,0,20840342,179390
OK,67,34,927,67,2014-08-02T03:15:00,0,20840791,179390
OK,67,34,927,67,2014-08-02T03:20:00,0,20841240,179390
OK,67,34,927,67,2014-08-02T03:25:00,0,20841689,179390
OK,67,34,927,67,2014-08-02T03:30:00,0,20842138,179390
OK,128,18,927,128,2014-08-02T03:35:00,1,20842587,179390
OK,128,18,927,128,2014-08-02T03:40:00,0,20843036,179390
OK,128,18,927,128,2014-08-02T03:45:00,0,20843485,179390
OK,69,33,927,69,2014-08-02T03:50:00,1,20843934,179390
OK,69,33,927,69,2014-08-02T03:55:00,0,20844383,179390
OK,40,57,927,40,2014-08-02T06:00:00,2,20851837,179390
OK,40,57,927,40,2014-08-02T06:05:00,3,20852286,179390
OK,43,53,927,43,2014-08-02T06:10:00,4,20852735,179390
OK,43,53,927,43,2014-08-02T06:15:00,4,20853184,179390
OK,34,67,927,34,2014-08-02T06:20:00,3,20853633,179390
OK,38,60,927,38,2014-08-02T06:25:00,5,20854082,179390
OK,40,57,927,40,2014-08-02T06:30:00,4,20854531,179390
OK,43,53,927,43,2014-08-02T06:35:00,3,20854980,179390
OK,37,62,927,37,2014-08-02T06:40:00,3,20855429,179390
OK,38,60,927,38,2014-08-02T06:45:00,7,20855878,179390
OK,38,60,927,38,2014-08-02T06:50:00,9,20856327,179390
OK,36,64,927,36,2014-08-02T06:55:00,6,20856776,179390
OK,57,40,927,57,2014-08-02T07:00:00,3,20857225,179390
OK,46,50,927,46,2014-08-02T07:05:00,5,20857674,179390
OK,43,53,927,43,2014-08-02T07:10:00,6,20858123,179390
OK,35,65,927,35,2014-08-02T07:15:00,6,20858572,179390
OK,34,67,927,34,2014-08-02T07:20:00,12,20859021,179390
OK,36,64,927,36,2014-08-02T07:25:00,12,20859470,179390
OK,43,53,927,43,2014-08-02T07:30:00,11,20859919,179390
OK,36,64,927,36,2014-08-02T07:35:00,10,20860368,179390
OK,37,62,927,37,2014-08-02T07:40:00,9,20860817,179390
OK,40,57,927,40,2014-08-02T07:45:00,13,20861266,179390
OK,43,53,927,43,2014-08-02T07:50:00,8,20861715,179390
OK,40,57,927,40,2014-08-02T07:55:00,10,20862164,179390
OK,37,62,927,37,2014-08-02T08:00:00,10,20862613,179390
OK,46,50,927,46,2014-08-02T08:05:00,11,20863062,179390
OK,40,57,927,40,2014-08-02T08:10:00,14,20863511,179390
OK,38,60,927,38,2014-08-02T08:15:00,20,20863960,179390
OK,38,60,927,38,2014-08-02T08:20:00,13,20864409,179390
OK,36,64,927,36,2014-08-02T08:25:00,8,20864858,179390
OK,35,65,927,35,2014-08-02T08:30:00,6,20865307,179390
OK,35,65,927,35,2014-08-02T08:35:00,6,20865756,179390
OK,36,64,927,36,2014-08-02T08:40:00,6,20866205,179390
OK,39,59,927,39,2014-08-02T08:45:00,7,20866654,179390
OK,44,52,927,44,2014-08-02T08:50:00,10,20867103,179390
OK,41,56,927,41,2014-08-02T08:55:00,13,20867552,179390
OK,37,62,927,37,2014-08-02T09:00:00,12,20868001,179390
OK,38,60,927,38,2014-08-02T09:05:00,16,20868450,179390
OK,38,60,927,38,2014-08-02T09:10:00,13,20868899,179390
OK,38,60,927,38,2014-08-02T09:15:00,14,20869348,179390
OK,38,60,927,38,2014-08-02T09:20:00,16,20869797,179390
OK,38,60,927,38,2014-08-02T09:25:00,16,20870246,179390
OK,36,64,927,36,2014-08-02T09:30:00,11,20870695,179390
OK,39,59,927,39,2014-08-02T09:35:00,11,20871144,179390
OK,39,59,927,39,2014-08-02T09:40:00,18,20871593,179390
OK,39,59,927,39,2014-08-02T09:45:00,23,20872042,179390
OK,36,64,927,36,2014-08-02T09:50:00,12,20872491,179390
OK,36,64,927,36,2014-08-02T09:55:00,12,20872940,179390
OK,35,65,927,35,2014-08-02T10:00:00,12,20873389,179390
OK,39,59,927,39,2014-08-02T10:05:00,11,20873838,179390
OK,41,56,927,41,2014-08-02T10:10:00,14,20874287,179390
OK,39,59,927,39,2014-08-02T10:15:00,14,20874736,179390
OK,40,57,927,40,2014-08-02T10:20:00,23,20875185,179390
OK,40,57,927,40,2014-08-02T10:25:00,21,20875634,179390
OK,40,57,927,40,2014-08-02T10:30:00,14,20876083,179390
OK,40,57,927,40,2014-08-02T10:35:00,15,20876532,179390
OK,42,54,927,42,2014-08-02T10:40:00,19,20876981,179390
OK,46,50,927,46,2014-08-02T10:45:00,19,20877430,179390
OK,42,54,927,42,2014-08-02T10:50:00,19,20877879,179390
OK,49,47,927,49,2014-08-02T10:55:00,21,20878328,179390
OK,49,47,927,49,2014-08-02T11:00:00,19,20878777,179390
OK,38,60,927,38,2014-08-02T11:05:00,16,20879226,179390
OK,41,56,927,41,2014-08-02T11:10:00,20,20879675,179390
OK,42,54,927,42,2014-08-02T11:15:00,21,20880124,179390
OK,40,57,927,40,2014-08-02T11:20:00,20,20880573,179390
OK,39,59,927,39,2014-08-02T11:25:00,14,20881022,179390
OK,38,60,927,38,2014-08-02T11:30:00,7,20881471,179390
OK,39,59,927,39,2014-08-02T11:35:00,7,20881920,179390
OK,38,60,927,38,2014-08-02T11:40:00,18,20882369,179390
OK,38,60,927,38,2014-08-02T11:45:00,21,20882818,179390
OK,40,57,927,40,2014-08-02T11:50:00,10,20883267,179390
OK,40,57,927,40,2014-08-02T11:55:00,11,20883716,179390
OK,36,64,927,36,2014-08-02T12:00:00,9,20884165,179390
OK,41,56,927,41,2014-08-02T12:05:00,8,20884614,179390
OK,42,54,927,42,2014-08-02T12:10:00,11,20885063,179390
OK,40,57,927,40,2014-08-02T12:15:00,14,20885512,179390
OK,39,59,927,39,2014-08-02T12:20:00,13,20885961,179390
OK,44,52,927,44,2014-08-02T12:25:00,13,20886410,179390
OK,43,53,927,43,2014-08-02T12:30:00,16,20886859,179390
OK,39,59,927,39,2014-08-02T12:35:00,8,20887308,179390
OK,37,62,927,37,2014-08-02T12:40:00,13,20887757,179390
OK,36,64,927,36,2014-08-02T12:45:00,13,20888206,179390
OK,38,60,927,38,2014-08-02T12:50:00,15,20888655,179390
OK,39,59,927,39,2014-08-02T12:55:00,14,20889104,179390
OK,41,56,927,41,2014-08-02T13:00:00,7,20889553,179390
OK,42,54,927,42,2014-08-02T13:05:00,9,20890002,179390
OK,41,56,927,41,2014-08-02T13:10:00,13,20890451,179390
OK,41,56,927,41,2014-08-02T13:15:00,13,20890900,179390
OK,44,52,927,44,2014-08-02T13:20:00,8,20891349,179390
OK,41,56,927,41,2014-08-02T13:25:00,12,20891798,179390
OK,39,59,927,39,2014-08-02T13:30:00,14,20892247,179390
OK,50,46,927,50,2014-08-02T13:35:00,11,20892696,179390
OK,51,45,927,51,2014-08-02T13:40:00,13,20893145,179390
OK,37,62,927,37,2014-08-02T13:45:00,14,20893594,179390
OK,40,57,927,40,2014-08-02T13:50:00,13,20894043,179390
OK,38,60,927,38,2014-08-02T13:55:00,17,20894492,179390
OK,38,60,927,38,2014-08-02T14:00:00,15,20894941,179390
OK,40,57,927,40,2014-08-02T14:05:00,12,20895390,179390
OK,41,56,927,41,2014-08-02T14:10:00,9,20895839,179390
OK,42,54,927,42,2014-08-02T14:15:00,14,20896288,179390
OK,44,52,927,44,2014-08-02T14:20:00,14,20896737,179390
OK,40,57,927,40,2014-08-02T14:25:00,7,20897186,179390
OK,39,59,927,39,2014-08-02T14:30:00,5,20897635,179390
OK,38,60,927,38,2014-08-02T14:35:00,9,20898084,179390
OK,39,59,927,39,2014-08-02T14:40:00,9,20898533,179390
OK,41,56,927,41,2014-08-02T14:45:00,8,20898982,179390
OK,40,57,927,40,2014-08-02T14:50:00,8,20899431,179390
OK,37,62,927,37,2014-08-02T14:55:00,5,20899880,179390
OK,39,59,927,39,2014-08-02T15:00:00,8,20900329,179390
OK,39,59,927,39,2014-08-02T15:05:00,16,20900778,179390
OK,38,60,927,38,2014-08-02T15:10:00,16,20901227,179390
OK,38,60,927,38,2014-08-02T15:15:00,8,20901676,179390
OK,37,62,927,37,2014-08-02T15:20:00,6,20902125,179390
OK,37,62,927,37,2014-08-02T15:25:00,5,20902574,179390
OK,43,53,927,43,2014-08-02T15:30:00,6,20903023,179390
OK,43,53,927,43,2014-08-02T15:35:00,7,20903472,179390
OK,37,62,927,37,2014-08-02T15:40:00,11,20903921,179390
OK,38,60,927,38,2014-08-02T15:45:00,13,20904370,179390
OK,39,59,927,39,2014-08-02T15:50:00,8,20904819,179390
OK,40,57,927,40,2014-08-02T15:55:00,11,20905268,179390
OK,41,56,927,41,2014-08-02T16:00:00,7,20905717,179390
OK,37,62,927,37,2014-08-02T16:05:00,4,20906166,179390
OK,37,62,927,37,2014-08-02T16:10:00,9,20906615,179390
OK,39,59,927,39,2014-08-02T16:15:00,9,20907064,179390
OK,41,56,927,41,2014-08-02T16:20:00,7,20907513,179390
OK,33,69,927,33,2014-08-02T16:25:00,3,20907962,179390
OK,34,67,927,34,2014-08-02T16:30:00,4,20908411,179390
OK,38,60,927,38,2014-08-02T16:35:00,5,20908860,179390
OK,37,62,927,37,2014-08-02T16:40:00,6,20909309,179390
OK,36,64,927,36,2014-08-02T16:45:00,7,20909758,179390
OK,38,60,927,38,2014-08-02T16:50:00,6,20910207,179390
OK,38,60,927,38,2014-08-02T16:55:00,7,20910656,179390
OK,35,65,927,35,2014-08-02T17:00:00,5,20911105,179390
OK,58,39,927,58,2014-08-02T17:05:00,5,20911554,179390
OK,44,52,927,44,2014-08-02T17:10:00,8,20912003,179390
OK,36,64,927,36,2014-08-02T17:15:00,5,20912452,179390
OK,52,44,927,52,2014-08-02T17:20:00,3,20912901,179390
OK,45,51,927,45,2014-08-02T17:25:00,6,20913350,179390
OK,38,60,927,38,2014-08-02T17:30:00,6,20913799,179390
OK,37,62,927,37,2014-08-02T17:35:00,3,20914248,179390
OK,45,51,927,45,2014-08-02T17:40:00,2,20914697,179390
OK,45,51,927,45,2014-08-02T17:45:00,2,20915146,179390
OK,35,65,927,35,2014-08-02T17:50:00,3,20915595,179390
OK,49,47,927,49,2014-08-02T17:55:00,3,20916044,179390
OK,49,47,927,49,2014-08-02T18:00:00,3,20916493,179390
OK,43,53,927,43,2014-08-02T18:05:00,2,20916942,179390
OK,40,57,927,40,2014-08-02T18:10:00,4,20917391,179390
OK,35,65,927,35,2014-08-02T18:15:00,6,20917840,179390
OK,38,60,927,38,2014-08-02T18:20:00,9,20918289,179390
OK,39,59,927,39,2014-08-02T18:25:00,6,20918738,179390
OK,40,57,927,40,2014-08-02T18:30:00,2,20919187,179390
OK,39,59,927,39,2014-08-02T18:35:00,3,20919636,179390
OK,39,59,927,39,2014-08-02T18:40:00,3,20920085,179390
OK,31,74,927,31,2014-08-02T18:45:00,1,20920534,179390
OK,53,43,927,53,2014-08-02T18:50:00,5,20920983,179390
OK,53,43,927,53,2014-08-02T18:55:00,5,20921432,179390
OK,35,65,927,35,2014-08-02T19:00:00,4,20921881,179390
OK,32,72,927,32,2014-08-02T19:05:00,5,20922330,179390
OK,37,62,927,37,2014-08-02T19:10:00,7,20922779,179390
OK,42,54,927,42,2014-08-02T19:15:00,9,20923228,179390
OK,42,54,927,42,2014-08-02T19:20:00,5,20923677,179390
OK,37,62,927,37,2014-08-02T19:25:00,2,20924126,179390
OK,54,42,927,54,2014-08-02T19:30:00,2,20924575,179390
OK,53,43,927,53,2014-08-02T19:35:00,3,20925024,179390
OK,51,45,927,51,2014-08-02T19:40:00,2,20925473,179390
OK,37,62,927,37,2014-08-02T19:45:00,9,20925922,179390
OK,37,62,927,37,2014-08-02T19:50:00,11,20926371,179390
OK,37,62,927,37,2014-08-02T19:55:00,9,20926820,179390
OK,39,59,927,39,2014-08-02T20:00:00,5,20927269,179390
OK,41,56,927,41,2014-08-02T20:05:00,1,20927718,179390
OK,43,53,927,43,2014-08-02T20:10:00,3,20928167,179390
OK,43,53,927,43,2014-08-02T20:15:00,3,20928616,179390
OK,40,57,927,40,2014-08-02T20:20:00,1,20929065,179390
OK,51,45,927,51,2014-08-02T20:25:00,1,20929514,179390
OK,39,59,927,39,2014-08-02T20:30:00,3,20929963,179390
OK,37,62,927,37,2014-08-02T20:35:00,4,20930412,179390
OK,46,50,927,46,2014-08-02T20:40:00,3,20930861,179390
OK,46,50,927,46,2014-08-02T20:45:00,5,20931310,179390
OK,44,52,927,44,2014-08-02T20:50:00,6,20931759,179390
OK,51,45,927,51,2014-08-02T20:55:00,2,20932208,179390
OK,33,69,927,33,2014-08-02T21:00:00,4,20932657,179390
OK,33,69,927,33,2014-08-02T21:05:00,4,20933106,179390
OK,70,32,927,70,2014-08-02T21:10:00,2,20933555,179390
OK,70,32,927,70,2014-08-02T21:15:00,5,20934004,179390
OK,71,32,927,71,2014-08-02T21:20:00,6,20934453,179390
OK,67,34,927,67,2014-08-02T21:25:00,6,20934902,179390
OK,59,39,927,59,2014-08-02T21:30:00,8,20935351,179390
OK,56,41,927,56,2014-08-02T21:35:00,7,20935800,179390
OK,59,39,927,59,2014-08-02T21:40:00,7,20936249,179390
OK,59,39,927,59,2014-08-02T21:45:00,5,20936698,179390
OK,56,41,927,56,2014-08-02T21:50:00,2,20937147,179390
OK,36,64,927,36,2014-08-02T21:55:00,2,20937596,179390
OK,36,64,927,36,2014-08-02T22:00:00,0,20938045,179390
OK,71,32,927,71,2014-08-02T22:05:00,1,20938494,179390
OK,66,34,927,66,2014-08-02T22:10:00,2,20938943,179390
OK,64,36,927,64,2014-08-02T22:15:00,2,20939392,179390
OK,67,34,927,67,2014-08-02T22:20:00,3,20939841,179390
OK,48,48,927,48,2014-08-02T22:25:00,1,20940290,179390
OK,67,34,927,67,2014-08-02T22:30:00,1,20940739,179390
OK,56,41,927,56,2014-08-02T22:35:00,2,20941188,179390
OK,69,33,927,69,2014-08-02T22:40:00,5,20941637,179390
OK,67,34,927,67,2014-08-02T22:45:00,2,20942086,179390
OK,41,56,927,41,2014-08-02T22:50:00,3,20942535,179390
OK,43,53,927,43,2014-08-02T22:55:00,3,20942984,179390
OK,64,36,927,64,2014-08-02T23:00:00,1,20943433,179390
OK,64,36,927,64,2014-08-02T23:10:00,0,20943882,179390
OK,81,28,927,81,2014-08-02T23:15:00,1,20944331,179390
OK,73,31,927,73,2014-08-02T23:20:00,4,20944780,179390
OK,58,39,927,58,2014-08-02T23:25:00,4,20945229,179390
OK,67,34,927,67,2014-08-02T23:30:00,5,20945678,179390
OK,66,34,927,66,2014-08-02T23:35:00,3,20946127,179390
OK,70,32,927,70,2014-08-02T23:40:00,1,20946576,179390
OK,37,62,927,37,2014-08-02T23:45:00,2,20947025,179390
OK,37,62,927,37,2014-08-02T23:50:00,0,20947474,179390
OK,37,62,927,37,2014-08-02T23:55:00,0,20947923,179390
OK,37,62,927,37,2014-08-03T00:00:00,0,20948372,179390
OK,37,62,927,37,2014-08-03T00:05:00,0,20948821,179390
OK,70,32,927,70,2014-08-03T00:10:00,1,20949269,179390
OK,70,32,927,70,2014-08-03T00:15:00,0,20949718,179390
OK,72,32,927,72,2014-08-03T00:20:00,2,20950167,179390
OK,79,29,927,79,2014-08-03T00:25:00,4,20950616,179390
OK,88,26,927,88,2014-08-03T00:30:00,2,20951065,179390
OK,85,27,927,85,2014-08-03T00:35:00,0,20951514,179390
OK,85,27,927,85,2014-08-03T00:40:00,0,20951963,179390
OK,33,69,927,33,2014-08-03T00:45:00,2,20952412,179390
OK,38,60,927,38,2014-08-03T00:50:00,3,20952861,179390
OK,66,34,927,66,2014-08-03T00:55:00,4,20953310,179390
OK,68,33,927,68,2014-08-03T01:00:00,2,20953759,179390
OK,45,51,927,45,2014-08-03T01:05:00,1,20954208,179390
OK,45,51,927,45,2014-08-03T01:10:00,1,20954657,179390
OK,45,51,927,45,2014-08-03T01:15:00,0,20955106,179390
OK,45,51,927,45,2014-08-03T01:20:00,0,20955555,179390
OK,45,51,927,45,2014-08-03T01:25:00,0,20956004,179390
OK,71,32,927,71,2014-08-03T01:30:00,1,20956453,179390
OK,72,32,927,72,2014-08-03T01:35:00,2,20956902,179390
OK,45,51,927,45,2014-08-03T01:40:00,1,20957351,179390
OK,45,51,927,45,2014-08-03T01:45:00,0,20957800,179390
OK,45,51,927,45,2014-08-03T01:50:00,0,20958249,179390
OK,91,25,927,91,2014-08-03T01:55:00,1,20958698,179390
OK,91,25,927,91,2014-08-03T02:00:00,0,20959147,179390
OK,91,25,927,91,2014-08-03T02:05:00,0,20959596,179390